[[{"header":{"parameterUnit":"m.s-1","parameterCategory":1,"la1":30.2991,"la2":30.254,"lo1":-89.0895,"lo2":-89.0444,"dy":0.0017,"dx":0.0017,"nx":28,"ny":28,"refTime":"2024-03-06T03:00:00:Z","depth":0,"parameterNumber":2,"parameterNumberName":"U-component_of_WINDS"},"data":[0,0,0,0,0,0,0,0,0,0,0,0,0,0,0,0,0,0,0,0,0,0,0,0,0,0,0,0,0,0,0,0,0,0,0,0,0,0,0,0,0,0,0,0,0,0,0,0,0,0,0,0,0,0,0,0,0,0,1.1589,1.1589,0,1.1612,1.1613,1.1613,1.1577,1.1576,1.1575,1.1574,1.16,1.1601,1.1603,0,0,0,0,0,0,0,0,0,0,0,0,0,1.1515,1.1517,1.1589,1.1589,1.1589,1.1612,1.1613,1.1613,1.1578,1.1576,1.1575,1.1573,1.1599,1.1601,1.1603,0,0,0,0,0,0,0,0,0,0,0,0,0,1.1544,1.1517,1.1589,1.1574,1.1573,1.1612,1.1613,1.1613,1.1578,1.1576,1.1574,1.1573,1.1598,1.1601,1.1604,1.1658,0,0,1.1612,1.1613,0,0,0,0,0,0,0,0,1.1542,1.1547,1.1576,1.1575,1.1574,1.159,1.1596,1.1628,1.1578,1.1576,1.1574,1.1572,1.1598,1.1601,1.1609,1.1659,1.1661,1.1612,1.1614,1.1615,1.1616,0,0,0,0,0,0,0,1.154,1.1545,1.1598,1.1577,1.1576,1.1568,1.157,1.1602,1.1597,1.1576,1.1574,1.1577,1.1597,1.1607,1.161,1.1661,1.1612,1.1615,1.1617,1.1618,1.1759,1.1761,0,0,0,0,0,0,1.154,1.1544,1.1597,1.1599,1.1553,1.157,1.1573,1.1587,1.1597,1.1597,1.1579,1.1575,1.1603,1.1606,1.161,1.1676,1.1615,1.1618,1.162,1.1757,1.176,1.1762,0,0,0,0,0,0,1.1538,1.1545,1.1596,1.1571,1.1577,1.1574,1.159,1.1588,1.1598,1.1599,1.1598,1.1589,1.1602,1.1607,1.1647,1.1677,1.1619,1.1622,1.1755,1.1758,1.1761,1.1808,0,0,0,0,0,0,1.1536,1.1545,1.1565,1.1571,1.1578,1.1632,1.1592,1.159,1.1603,1.1598,1.1608,1.1608,1.1601,1.1643,1.165,1.1679,1.1624,1.1752,1.1756,1.176,1.1804,1.1812,1.1819,0,0,0,0,0,1.1534,1.1577,1.1566,1.1572,1.1603,1.1634,1.1637,1.1627,1.1605,1.1626,1.1627,1.1608,1.1672,1.1648,1.1655,1.1686,1.175,1.1755,1.176,1.18,1.181,1.1819,0,0,0,0,0,0,1.1573,1.1577,1.1565,1.1611,1.1622,1.1627,1.1653,1.1639,1.1657,1.1652,1.1639,1.1642,1.1686,1.169,1.1662,1.174,1.1708,1.1714,1.1736,1.1746,1.1754,1.1752,1.1626,0,0,0,0,0,1.1587,1.1611,1.1614,1.1654,1.166,1.1656,1.1669,1.166,1.1671,1.1676,1.168,1.1692,1.1715,1.1731,1.1752,1.1804,1.1807,1.1829,1.1837,1.1843,1.1849,1.1879,1.189,1.1778,1.1777,1.1777,0,0,1.1617,1.1622,1.1638,1.1662,1.167,1.1696,1.166,1.1689,1.1708,1.1681,1.1719,1.1723,1.1735,1.1783,1.1803,1.1787,1.1881,1.1849,1.1855,1.1857,1.1885,1.1896,1.1905,1.1781,1.178,1.178,0,0,1.1684,1.1689,1.1725,1.1733,1.1745,1.1742,1.1751,1.1758,1.176,1.1798,1.1779,1.1802,1.1842,1.1852,1.1863,1.1936,1.192,1.1943,1.1985,1.2014,1.2023,1.2031,1.2058,1.2068,1.1949,1.1949,1.1949,0,1.1719,1.1756,1.1745,1.1775,1.1787,1.1763,1.18,1.1809,1.1827,1.1837,1.1818,1.1869,1.1876,1.1926,1.1944,1.1953,1.1963,1.1942,1.2022,1.203,1.2037,1.2063,1.2073,1.1952,1.1951,1.1951,1.1951,0,1.18,1.1826,1.1854,1.1872,1.1887,1.1921,1.1915,1.1932,1.1923,1.1922,1.1963,1.197,1.1993,1.2005,1.1995,1.2054,1.2044,1.2024,1.1991,1.2051,1.2075,1.2085,1.1956,1.1955,1.1954,1.1953,0,0,1.1892,1.1904,1.1915,1.1924,1.1936,1.1957,1.199,1.2012,1.2028,1.2042,1.207,1.2105,1.2087,1.2099,1.2091,1.2117,1.2176,1.2094,1.2094,1.211,1.2243,1.2259,1.2271,1.2166,1.2168,1.2169,1.2243,0,1.1959,1.2016,1.2007,1.2062,1.2087,1.2066,1.2095,1.2106,1.2107,1.2129,1.213,1.2156,1.213,1.2137,1.2162,1.2164,1.2203,1.2158,1.2193,1.2195,1.2192,1.2283,1.2299,1.2368,1.2252,1.2254,1.2255,0,1.2046,1.2063,1.2121,1.2131,1.2141,1.2167,1.2188,1.2209,1.2222,1.2221,1.2236,1.2224,1.2258,1.2225,1.2273,1.2243,1.2257,1.226,1.2263,1.2266,1.2229,1.229,1.239,1.2401,1.2269,1.2268,1.2267,0,1.2109,1.2147,1.2186,1.2195,1.2207,1.2226,1.2232,1.2243,1.2258,1.2276,1.2286,1.2309,1.2321,1.2339,1.2334,1.231,1.2385,1.235,1.2386,1.2386,1.2403,1.2402,1.2507,1.241,1.241,1.241,1.241,0,1.2186,1.2222,1.2215,1.224,1.228,1.227,1.2311,1.2315,1.2325,1.2351,1.2334,1.2359,1.235,1.2375,1.2371,1.2413,1.2419,1.242,1.2418,1.2422,1.2422,1.2431,1.2427,1.2413,1.2412,1.2412,1.2411,0,1.2263,1.2259,1.2302,1.231,1.2313,1.2343,1.2351,1.2374,1.2374,1.2407,1.2414,1.2415,1.2443,1.244,1.2471,1.2469,1.2521,1.2514,1.2517,1.2515,1.2552,1.2549,1.2667,1.2683,1.2575,1.2576,1.2577,0,1.2313,1.234,1.2352,1.2368,1.2375,1.2401,1.2416,1.2408,1.2425,1.2443,1.2465,1.2492,1.2513,1.256,1.2563,1.2588,1.2582,1.2622,1.2585,1.2588,1.2584,1.2583,1.2586,1.2629,1.263,1.2631,1.2632,0,1.2402,1.2399,1.2421,1.2444,1.2462,1.2479,1.2494,1.2509,1.2502,1.2522,1.2551,1.2567,1.26,1.2628,1.2652,1.2659,1.2645,1.2643,1.2653,1.2657,1.2658,1.2659,1.2537,1.2641,1.264,1.2639,1.2639,1.2638,1.2468,1.2492,1.2504,1.253,1.2541,1.2556,1.2579,1.2582,1.2606,1.2632,1.2626,1.2659,1.2673,1.2704,1.2714,1.274,1.2726,1.274,1.2743,1.2747,1.2752,1.2653,1.2744,1.2744,1.2744,1.2744,1.2744,0,1.2557,1.2564,1.2588,1.261,1.2631,1.2616,1.2632,1.2651,1.268,1.2694,1.2716,1.275,1.2777,1.2783,1.2809,1.283,1.2824,1.2837,1.2836,1.2838,1.2763,1.2752,1.2841,1.2841,1.2841,1.2841,1.2841,1.2841,1.2606,1.2647,1.2646,1.2692,1.2699,1.2731,1.2742,1.2757,1.2768,1.2807,1.283,1.2833,1.2845,1.2872,1.2897,1.2898,1.2909,1.2925,1.2924,1.2853,1.2843,1.2834,1.2824,1.2927,1.2927,1.2997,1.2998,1.2998]},{"header":{"parameterUnit":"m.s-1","parameterCategory":1,"la1":30.2991,"la2":30.254,"lo1":-89.0895,"lo2":-89.0444,"dy":0.0017,"dx":0.0017,"nx":28,"ny":28,"refTime":"2024-03-06T03:00:00:Z","depth":0,"parameterNumber":3,"parameterNumberName":"V-component_of_WINDS"},"data":[0,0,0,0,0,0,0,0,0,0,0,0,0,0,0,0,0,0,0,0,0,0,0,0,0,0,0,0,0,0,0,0,0,0,0,0,0,0,0,0,0,0,0,0,0,0,0,0,0,0,0,0,0,0,0,0,0,0,-0.7198,-0.7199,0,-0.7281,-0.7282,-0.7283,-0.7293,-0.7292,-0.7291,-0.7291,-0.7377,-0.738,-0.7383,0,0,0,0,0,0,0,0,0,0,0,0,0,-0.7051,-0.7054,-0.7198,-0.7199,-0.72,-0.7281,-0.7282,-0.7283,-0.7293,-0.7292,-0.7291,-0.729,-0.7376,-0.7379,-0.7383,0,0,0,0,0,0,0,0,0,0,0,0,0,-0.7123,-0.7055,-0.7198,-0.7215,-0.7217,-0.7281,-0.7282,-0.7284,-0.7293,-0.7292,-0.7291,-0.729,-0.7375,-0.7379,-0.7384,-0.7436,0,0,-0.7398,-0.74,0,0,0,0,0,0,0,0,-0.7119,-0.7128,-0.7212,-0.7214,-0.7217,-0.7276,-0.7262,-0.7335,-0.7294,-0.7265,-0.7291,-0.7289,-0.7344,-0.7351,-0.7369,-0.744,-0.7444,-0.7398,-0.7401,-0.7403,-0.7404,0,0,0,0,0,0,0,-0.7114,-0.7125,-0.7231,-0.7213,-0.7216,-0.7219,-0.7228,-0.7276,-0.731,-0.7267,-0.7268,-0.7278,-0.7345,-0.7365,-0.7372,-0.7445,-0.7398,-0.7402,-0.7405,-0.7407,-0.7566,-0.7567,0,0,0,0,0,0,-0.7105,-0.712,-0.7229,-0.7234,-0.7164,-0.7223,-0.7233,-0.7258,-0.731,-0.7316,-0.7278,-0.7278,-0.7358,-0.7366,-0.7375,-0.7441,-0.7403,-0.7407,-0.741,-0.7564,-0.7566,-0.7567,0,0,0,0,0,0,-0.7102,-0.7115,-0.7225,-0.7177,-0.7192,-0.7227,-0.7255,-0.726,-0.728,-0.7318,-0.7325,-0.7292,-0.7357,-0.7368,-0.7421,-0.7444,-0.7409,-0.7413,-0.7562,-0.7565,-0.7567,-0.7573,0,0,0,0,0,0,-0.7098,-0.7114,-0.7133,-0.7178,-0.7194,-0.727,-0.7256,-0.7263,-0.7287,-0.7287,-0.7333,-0.7339,-0.7357,-0.7414,-0.7426,-0.745,-0.7417,-0.756,-0.7563,-0.7566,-0.7571,-0.7575,-0.7579,0,0,0,0,0,-0.7093,-0.7132,-0.7134,-0.7147,-0.7219,-0.7271,-0.728,-0.73,-0.7289,-0.731,-0.7335,-0.7338,-0.744,-0.742,-0.7433,-0.7458,-0.7559,-0.7563,-0.7566,-0.7569,-0.7574,-0.7579,0,0,0,0,0,0,-0.7089,-0.7138,-0.7141,-0.7196,-0.7229,-0.7272,-0.7299,-0.7304,-0.7342,-0.734,-0.7363,-0.7373,-0.7425,-0.7447,-0.7424,-0.7513,-0.7498,-0.7505,-0.7497,-0.7502,-0.7506,-0.7499,-0.7421,0,0,0,0,0,-0.7095,-0.7132,-0.7173,-0.7217,-0.7234,-0.7263,-0.7286,-0.7299,-0.7334,-0.7348,-0.7377,-0.7412,-0.7453,-0.7478,-0.7517,-0.7574,-0.7585,-0.7598,-0.7602,-0.7605,-0.761,-0.7643,-0.765,-0.7578,-0.7578,-0.7578,0,0,-0.7107,-0.7138,-0.716,-0.7217,-0.7244,-0.7283,-0.7275,-0.7316,-0.7346,-0.7355,-0.7407,-0.7429,-0.747,-0.7526,-0.7552,-0.7546,-0.7633,-0.7609,-0.7612,-0.7615,-0.7648,-0.7654,-0.766,-0.7581,-0.758,-0.758,0,0,-0.7149,-0.7175,-0.7216,-0.7244,-0.7285,-0.7305,-0.7315,-0.7358,-0.7373,-0.7425,-0.7434,-0.7469,-0.7537,-0.7567,-0.759,-0.7645,-0.7649,-0.7657,-0.7677,-0.7709,-0.7715,-0.772,-0.7741,-0.7748,-0.7662,-0.7662,-0.7662,0,-0.7158,-0.7216,-0.7236,-0.7277,-0.7303,-0.7313,-0.7355,-0.7381,-0.7433,-0.7451,-0.7443,-0.753,-0.7558,-0.7621,-0.7635,-0.7653,-0.7666,-0.7652,-0.7713,-0.7718,-0.7723,-0.7743,-0.775,-0.7662,-0.7662,-0.7662,-0.7662,0,-0.7227,-0.7267,-0.7295,-0.7345,-0.7374,-0.7415,-0.7442,-0.7469,-0.7479,-0.75,-0.7554,-0.7588,-0.7635,-0.7651,-0.7661,-0.7716,-0.7711,-0.7708,-0.7694,-0.773,-0.7749,-0.7757,-0.7663,-0.7663,-0.7663,-0.7663,0,0,-0.7268,-0.7329,-0.7339,-0.7363,-0.741,-0.7442,-0.7484,-0.753,-0.7553,-0.7589,-0.7626,-0.7684,-0.7682,-0.7709,-0.7722,-0.775,-0.7793,-0.7744,-0.7745,-0.7753,-0.7857,-0.786,-0.7868,-0.7796,-0.7798,-0.7799,-0.7854,0,-0.7316,-0.7391,-0.741,-0.7475,-0.7513,-0.7524,-0.7561,-0.7595,-0.7616,-0.7652,-0.7676,-0.7717,-0.771,-0.7727,-0.7755,-0.7782,-0.7814,-0.7778,-0.7832,-0.7833,-0.7821,-0.7878,-0.788,-0.7931,-0.7862,-0.7863,-0.7864,0,-0.7381,-0.7418,-0.7486,-0.753,-0.7547,-0.758,-0.7624,-0.7658,-0.7697,-0.7711,-0.7741,-0.7753,-0.7799,-0.7782,-0.7847,-0.7821,-0.7845,-0.7861,-0.7864,-0.787,-0.7851,-0.7886,-0.7947,-0.7955,-0.7875,-0.7874,-0.7874,0,-0.7405,-0.7473,-0.7523,-0.7542,-0.7594,-0.7617,-0.764,-0.7678,-0.7704,-0.7743,-0.7761,-0.7804,-0.7828,-0.7863,-0.7886,-0.7872,-0.7949,-0.7934,-0.7962,-0.7962,-0.7978,-0.7977,-0.8044,-0.7992,-0.7992,-0.7992,-0.7992,0,-0.7457,-0.7498,-0.7534,-0.7565,-0.7612,-0.7635,-0.7681,-0.7705,-0.7738,-0.7775,-0.7787,-0.7821,-0.785,-0.7888,-0.7907,-0.7958,-0.7968,-0.7982,-0.7986,-0.7981,-0.7979,-0.7997,-0.7994,-0.7994,-0.7994,-0.7993,-0.7993,0,-0.7491,-0.7517,-0.7572,-0.7617,-0.763,-0.7663,-0.7701,-0.7732,-0.7754,-0.78,-0.7812,-0.7847,-0.7893,-0.7919,-0.7977,-0.799,-0.8047,-0.805,-0.8034,-0.8036,-0.8063,-0.806,-0.8144,-0.8157,-0.8096,-0.8096,-0.8097,0,-0.7523,-0.7555,-0.7603,-0.7628,-0.7651,-0.7691,-0.7719,-0.7743,-0.7771,-0.7819,-0.7844,-0.7891,-0.7929,-0.8002,-0.8033,-0.8078,-0.8082,-0.8108,-0.8089,-0.8083,-0.8084,-0.8082,-0.8086,-0.8112,-0.8112,-0.8113,-0.8113,0,-0.7576,-0.7587,-0.7626,-0.7669,-0.7702,-0.7737,-0.7772,-0.7792,-0.7823,-0.7854,-0.7901,-0.7931,-0.799,-0.8037,-0.8084,-0.8109,-0.8117,-0.8119,-0.8128,-0.8123,-0.8113,-0.812,-0.8043,-0.8117,-0.8117,-0.8116,-0.8116,-0.8116,-0.761,-0.764,-0.7679,-0.7722,-0.7751,-0.7784,-0.7816,-0.7842,-0.7881,-0.7931,-0.7943,-0.7993,-0.8033,-0.8098,-0.8123,-0.8163,-0.8159,-0.8172,-0.8175,-0.8178,-0.818,-0.8106,-0.8172,-0.8172,-0.8172,-0.8172,-0.8172,0,-0.7665,-0.7691,-0.773,-0.7779,-0.7814,-0.7817,-0.7857,-0.7886,-0.7929,-0.7965,-0.8003,-0.8058,-0.8104,-0.8139,-0.8186,-0.8211,-0.8216,-0.8223,-0.8221,-0.8227,-0.818,-0.8168,-0.8218,-0.8218,-0.8218,-0.8218,-0.8218,-0.8218,-0.7697,-0.7748,-0.7764,-0.783,-0.7856,-0.7905,-0.7927,-0.7958,-0.7988,-0.8048,-0.8086,-0.8108,-0.8144,-0.8194,-0.8237,-0.8246,-0.8263,-0.827,-0.828,-0.8235,-0.823,-0.8225,-0.8214,-0.8273,-0.8273,-0.8323,-0.8324,-0.8324]}]]